Cool Ridge, WV (25825)

11:02 AM EDT on August 30, 2015 (GMT -0400)
Cool Ridge | | Change Station
CLOSE
Current Station
Personal Weather Station
Location: Raleigh Co., WV
Elevation: 2965 ft
Nearby Weather Stations

Elev 2965 ft 37.66 °N, 81.09 °W | Updated 13 seconds ago

Clear
Clear
70.9 °F
Feels Like 74 °F
N
0.0
Wind Variable Wind from West

Today
High -- | Low -- °F
--% Chance of Precip.
Yesterday
High -- | Low -- °F
Precip. -- in
6:52 AM 7:56 PM
Full, 99% visible
Pressure 30.17 in
Visibility 10.0 miles
Clouds Clear
Heat Index 74 °F
Dew Point 61 °F
Humidity 72%
Rainfall 0.00 in
Snow Depth Not available.
UV 6 out of 12
Pollen 8.70 out of 12
Air Quality Not available.
Flu Activity Not available.
METAR KBKW 301451Z AUTO 00000KT 10SM CLR 22/14 A3025 RMK AO2 SLP215 T02220144 51004
Pressure 30.17 in
Visibility 10.0 miles
Clouds Clear
Heat Index 74 °F
Dew Point 61 °F
Humidity 72%
Rainfall 0.00 in
Snow Depth Not available.
UV 6 out of 12
Pollen 8.70 out of 12
Air Quality Not available.
Flu Activity Not available.
METAR KBKW 301451Z AUTO 00000KT 10SM CLR 22/14 A3025 RMK AO2 SLP215 T02220144 51004

10-Day Weather Forecast

×

Almanac

Astronomy

Aug. 30, 2015 Rise Set
Actual Time
Civil Twilight
Nautical Twilight
Astronomical Twilight
Moon
Length of Visible Light
Length of Day
Tomorrow will be .
, % of the Moon is Illuminated

Today's Extremes

State Highs State Lows

Community

WunderPhotos

Upload Photos

1,850,984 photos uploaded!

WunderBlogs® & News

Nearby

Air Quality

  Air Quality AQ Index Pollutant
Not available.

Snow Depth

Station Depth Elevation

Earthquake Activity

City Distance Mag. Time & Date
Minimum magnitude displayed is 2.5.

Coastal Water Temperatures

Place Temperature

Stations

Nearby Weather Stations

Station Location Temp. Windchill Dew Point Humidity Wind Precip. Elev Updated Type